{"data":{"norad_id":63836,"epoch":"2026-09-19T18:37:09.777504Z","epoch_age_seconds":212427,"freshness":"STALE","line1":"1 63836U 25093A   26262.77580761  .00015281  00000+0  56334-3 0  9994","line2":"2 63836  43.0029  61.9369 0001998 264.7883  95.2741 15.27599871 77652","mean_motion":15.27599871,"eccentricity":0.0001998,"inclination_deg":43.0029,"raan_deg":61.9369,"arg_perigee_deg":264.7883,"mean_anomaly_deg":95.2741,"bstar":0.00056334,"rev_number":7765,"period_min":94.265522492964,"perigee_km":481.61874266826,"apogee_km":484.36044885592,"semimajor_km":6861.1265957621,"source":"CELESTRAK","updated_at":"2026-09-21T09:00:35.110197Z"}}